カタログに戻る

STARLINK-3375

運用中通信VLEO
NORAD 51114·PAYLOAD·🇺🇸 United States

打ち上げ Jan 19, 2022 から Cape Canaveral Space Force Station

Loading…

次のパス (今後24時間)

TLE

最新Source: CelesTrak SupGP

元期: Sep 14, 2026, 13:51 UTC

1 51114C 22005L   26257.57756944  .00042657  00000+0  13734-2 0  2570
2 51114  53.1570 151.3475 0001385  90.3237  67.7080 15.31641134    10

AllMySatでSTARLINK-3375をリアルタイム追跡

Download on the App Store